Volver al catálogo

CZ-6A DEB

ActivoPO
NORAD 61390·DEBRIS·🇨🇳 China

Lanzado Aug 6, 2024 desde Taiyuan Satellite Launch Center

Loading…

Próximos Pases (próximas 24 horas)

TLE

ActualizadoSource: Space-Track

Época: Sep 13, 2026, 22:52 UTC

1 61390U 24140XF  26256.95319922  .00002070  00000-0  76363-3 0  9998
2 61390  88.6874 234.4975 0016348 166.6544 193.5089 14.32110715105578

Sigue CZ-6A DEB en tiempo real con AllMySat

Download on the App Store